[[{"header":{"parameterUnit":"m.s-1","parameterCategory":1,"la1":30.2991,"la2":30.254,"lo1":-89.0895,"lo2":-89.0444,"dy":0.0017,"dx":0.0017,"nx":28,"ny":28,"refTime":"2023-09-12T09:00:00:Z","depth":0,"parameterNumber":2,"parameterNumberName":"U-component_of_WINDS"},"data":[0,0,0,0,0,0,0,0,0,0,0,0,0,0,0,0,0,0,0,0,0,0,0,0,0,0,0,0,0,0,0,0,0,0,0,0,0,0,0,0,0,0,0,0,0,0,0,0,0,0,0,0,0,0,0,0,0,0,3.9609,3.961,0,3.9717,3.9718,3.9719,3.9667,3.9664,3.9661,3.9659,3.9768,3.9773,3.9778,0,0,0,0,0,0,0,0,0,0,0,0,0,3.9354,3.9359,3.9609,3.961,3.9611,3.9717,3.9718,3.972,3.9667,3.9664,3.966,3.9657,3.9766,3.9772,3.9779,0,0,0,0,0,0,0,0,0,0,0,0,0,3.9463,3.936,3.9608,3.9598,3.9598,3.9716,3.9718,3.972,3.9668,3.9664,3.966,3.9656,3.9764,3.9772,3.978,3.9914,0,0,3.9805,3.9809,0,0,0,0,0,0,0,0,3.9457,3.9473,3.9598,3.9599,3.9599,3.9674,3.9668,3.9785,3.9669,3.9641,3.9658,3.9654,3.974,3.975,3.9779,3.9919,3.9924,3.9806,3.9811,3.9814,3.9817,0,0,0,0,0,0,0,3.945,3.9468,3.9651,3.96,3.9601,3.9587,3.9598,3.969,3.9713,3.9643,3.964,3.9654,3.9739,3.9771,3.9781,3.9926,3.9806,3.9813,3.9818,3.9821,4.0177,4.0181,0,0,0,0,0,0,3.9443,3.9462,3.9648,3.9655,3.9517,3.9595,3.9607,3.9654,3.9711,3.9716,3.9657,3.9651,3.9759,3.9772,3.9785,3.9943,3.9814,3.9822,3.9827,4.0173,4.0178,4.0183,0,0,0,0,0,0,3.9438,3.946,3.9644,3.9557,3.958,3.9604,3.9657,3.9659,3.969,3.9722,3.9725,3.9686,3.9756,3.9773,3.9882,3.9946,3.9826,3.9833,4.0167,4.0174,4.018,4.0262,0,0,0,0,0,0,3.943,3.9458,3.9511,3.9559,3.9584,3.974,3.9661,3.9664,3.9705,3.9698,3.975,3.9754,3.9754,3.987,3.989,3.9955,3.984,4.0161,4.017,4.0178,4.0253,4.027,4.0285,0,0,0,0,0,3.9422,3.953,3.9514,3.9536,3.965,3.9744,3.9758,3.9757,3.9711,3.9762,3.9782,3.9752,3.9936,3.9881,3.9903,3.9972,4.0157,4.0168,4.0178,4.0246,4.0267,4.0285,0,0,0,0,0,0,3.9489,3.9536,3.9519,3.9646,3.9691,3.9735,3.98,3.978,3.9839,3.9829,3.9825,3.9837,3.9948,3.9971,3.9909,4.0103,4.0039,4.0055,4.0084,4.0104,4.012,4.0111,3.9846,0,0,0,0,0,3.9518,3.9591,3.9628,3.9737,3.976,3.9777,3.9817,3.9812,3.9858,3.9877,3.9905,3.995,4.0018,4.0062,4.0127,4.0257,4.0266,4.0315,4.0331,4.0344,4.0356,4.0423,4.0444,4.0216,4.0216,4.0216,0,0,3.958,3.9615,3.9661,3.9751,3.9785,3.9859,3.9793,3.9875,3.9928,3.9889,3.9992,4.0014,4.0065,4.0184,4.0237,4.0206,4.0421,4.0357,4.0367,4.0372,4.0436,4.0457,4.0476,4.0223,4.0222,4.0221,0,0,3.973,3.9765,3.9858,3.9893,3.9946,3.9955,3.9978,4.0024,4.0037,4.0141,4.0112,4.0175,4.0293,4.0329,4.0363,4.0523,4.0497,4.0545,4.0627,4.0692,4.071,4.0726,4.078,4.08,4.0557,4.0557,4.0558,0,3.98,3.9911,3.9908,3.9991,4.003,3.9998,4.009,4.0125,4.0196,4.0223,4.0187,4.0331,4.0363,4.0488,4.0527,4.0557,4.058,4.0538,4.0708,4.0723,4.0738,4.079,4.0811,4.0563,4.0562,4.0561,4.0561,0,3.9993,4.007,4.0138,4.0207,4.0253,4.0341,4.035,4.0397,4.0388,4.04,4.0504,4.0541,4.0611,4.0641,4.0633,4.0764,4.0742,4.0708,4.0643,4.0765,4.0813,4.0833,4.057,4.0568,4.0567,4.0565,0,0,4.0188,4.0252,4.0277,4.0306,4.0361,4.042,4.0505,4.0573,4.0612,4.0662,4.0731,4.083,4.0797,4.0835,4.0831,4.0889,4.1009,4.0846,4.0847,4.0873,4.1152,4.1176,4.1199,4.0993,4.0997,4.1,4.1147,0,4.034,4.0488,4.0487,4.0624,4.0693,4.0663,4.0736,4.0777,4.079,4.085,4.0865,4.0934,4.0887,4.0909,4.0965,4.0983,4.1065,4.0973,4.1055,4.1058,4.1041,4.1225,4.1252,4.1389,4.1166,4.1169,4.1172,0,4.0537,4.0591,4.0735,4.0777,4.0806,4.0872,4.0932,4.099,4.1035,4.104,4.1082,4.1068,4.1152,4.1086,4.12,4.1137,4.117,4.1184,4.1189,4.1195,4.1121,4.1233,4.1433,4.1452,4.1202,4.12,4.1197,0,4.0661,4.0771,4.087,4.0897,4.0949,4.0995,4.1019,4.1059,4.1099,4.1151,4.1176,4.1239,4.1272,4.1319,4.1321,4.1274,4.1435,4.137,4.144,4.144,4.1474,4.1471,4.1678,4.15,4.15,4.1499,4.1499,0,4.0829,4.0917,4.0926,4.0987,4.1084,4.1081,4.1177,4.1196,4.1232,4.1294,4.1272,4.1331,4.1331,4.1391,4.1393,4.1485,4.1501,4.1506,4.1505,4.1507,4.1506,4.1527,4.1517,4.1505,4.1504,4.1503,4.1502,0,4.0984,4.0994,4.1099,4.1139,4.1151,4.1221,4.1254,4.1311,4.1322,4.1401,4.1419,4.1437,4.1505,4.1512,4.1593,4.1594,4.1704,4.1694,4.1689,4.1686,4.1754,4.1746,4.198,4.2009,4.1815,4.1817,4.1818,0,4.1089,4.1156,4.1202,4.1243,4.1268,4.1334,4.1374,4.1373,4.1415,4.1469,4.1519,4.1585,4.1638,4.1749,4.1768,4.1828,4.1818,4.1895,4.1826,4.1825,4.1815,4.181,4.1815,4.1908,4.191,4.1912,4.1913,0,4.1274,4.1275,4.1334,4.1394,4.1442,4.1489,4.1533,4.1567,4.1571,4.1619,4.1689,4.173,4.181,4.1875,4.1934,4.1957,4.1935,4.1935,4.1954,4.1955,4.1947,4.1949,4.1722,4.1929,4.1928,4.1927,4.1926,4.1925,4.1405,4.1462,4.1503,4.1568,4.1601,4.1642,4.1696,4.1713,4.1771,4.1837,4.1832,4.1908,4.1948,4.2024,4.2051,4.211,4.2083,4.2111,4.2118,4.2124,4.2129,4.194,4.2121,4.212,4.212,4.212,4.2119,0,4.1586,4.161,4.1671,4.1732,4.1783,4.1758,4.1805,4.1848,4.1916,4.1955,4.2006,4.2085,4.2147,4.217,4.2231,4.2272,4.2264,4.2288,4.2283,4.2288,4.2151,4.2128,4.2294,4.2294,4.2294,4.2294,4.2294,4.2294,4.1686,4.178,4.1785,4.1894,4.1917,4.1991,4.2019,4.2056,4.2086,4.2175,4.2226,4.2241,4.2273,4.2335,4.239,4.2395,4.2417,4.2445,4.2445,4.2316,4.2299,4.2282,4.2259,4.245,4.245,4.2577,4.2578,4.2579]},{"header":{"parameterUnit":"m.s-1","parameterCategory":1,"la1":30.2991,"la2":30.254,"lo1":-89.0895,"lo2":-89.0444,"dy":0.0017,"dx":0.0017,"nx":28,"ny":28,"refTime":"2023-09-12T09:00:00:Z","depth":0,"parameterNumber":3,"parameterNumberName":"V-component_of_WINDS"},"data":[0,0,0,0,0,0,0,0,0,0,0,0,0,0,0,0,0,0,0,0,0,0,0,0,0,0,0,0,0,0,0,0,0,0,0,0,0,0,0,0,0,0,0,0,0,0,0,0,0,0,0,0,0,0,0,0,0,0,0.6021,0.6022,0,0.611,0.6111,0.6112,0.6129,0.6128,0.6127,0.6127,0.6221,0.6224,0.6227,0,0,0,0,0,0,0,0,0,0,0,0,0,0.5865,0.5867,0.602,0.6022,0.6023,0.611,0.6111,0.6113,0.6129,0.6128,0.6127,0.6126,0.622,0.6224,0.6227,0,0,0,0,0,0,0,0,0,0,0,0,0,0.5941,0.5868,0.602,0.6041,0.6044,0.611,0.6111,0.6113,0.6129,0.6128,0.6127,0.6126,0.6219,0.6223,0.6228,0.628,0,0,0.6243,0.6245,0,0,0,0,0,0,0,0,0.5937,0.5947,0.6037,0.604,0.6043,0.6107,0.6091,0.6169,0.6129,0.6097,0.6127,0.6125,0.6184,0.6192,0.6211,0.6284,0.6288,0.6243,0.6246,0.6248,0.6249,0,0,0,0,0,0,0,0.5931,0.5943,0.6056,0.6038,0.6042,0.6047,0.6056,0.6106,0.6146,0.61,0.6101,0.6111,0.6186,0.6206,0.6213,0.629,0.6243,0.6247,0.625,0.6252,0.6409,0.641,0,0,0,0,0,0,0.5922,0.5939,0.6053,0.6059,0.5986,0.605,0.6061,0.6088,0.6145,0.6153,0.6112,0.6112,0.6199,0.6208,0.6217,0.6281,0.6248,0.6252,0.6255,0.6407,0.6409,0.641,0,0,0,0,0,0,0.5919,0.5932,0.605,0.5999,0.6014,0.6054,0.6084,0.609,0.6111,0.6155,0.6162,0.6126,0.6198,0.621,0.6264,0.6284,0.6255,0.6259,0.6406,0.6408,0.641,0.6409,0,0,0,0,0,0,0.5914,0.5931,0.5951,0.5999,0.6017,0.6095,0.6085,0.6093,0.6119,0.6119,0.617,0.6177,0.6198,0.6256,0.6268,0.629,0.6263,0.6404,0.6407,0.6409,0.6407,0.6411,0.6413,0,0,0,0,0,0.5909,0.5948,0.5952,0.5965,0.6043,0.6096,0.6106,0.6129,0.612,0.6141,0.6169,0.6175,0.628,0.6262,0.6275,0.6299,0.6403,0.6406,0.6409,0.6406,0.641,0.6413,0,0,0,0,0,0,0.5902,0.5955,0.596,0.6016,0.6051,0.6098,0.6125,0.6133,0.6172,0.6171,0.6198,0.621,0.6261,0.6286,0.6264,0.6351,0.6341,0.6347,0.6334,0.6338,0.6341,0.6335,0.6267,0,0,0,0,0,0.5907,0.5945,0.5989,0.6034,0.6052,0.6085,0.6109,0.6124,0.6162,0.6177,0.6209,0.6246,0.6287,0.6314,0.6354,0.6411,0.6422,0.6433,0.6436,0.6439,0.6444,0.6475,0.648,0.642,0.642,0.642,0,0,0.5918,0.5951,0.5974,0.6034,0.6063,0.6102,0.6098,0.614,0.6169,0.6184,0.6236,0.626,0.6304,0.6359,0.6385,0.638,0.6463,0.6442,0.6444,0.6448,0.6478,0.6484,0.6489,0.6422,0.6421,0.6421,0,0,0.5957,0.5986,0.6027,0.6055,0.6099,0.6121,0.613,0.6177,0.6193,0.6246,0.6257,0.6293,0.6363,0.6393,0.6418,0.6467,0.6474,0.6479,0.6496,0.6525,0.653,0.6535,0.6552,0.6558,0.6484,0.6484,0.6484,0,0.5965,0.6024,0.6047,0.6088,0.6114,0.6127,0.6168,0.6196,0.6251,0.6268,0.6263,0.635,0.6381,0.6442,0.6454,0.6474,0.6485,0.6474,0.6528,0.6532,0.6537,0.6553,0.656,0.6484,0.6484,0.6484,0.6484,0,0.6032,0.6073,0.61,0.6151,0.6181,0.6222,0.625,0.6277,0.6288,0.6311,0.6364,0.64,0.6448,0.6463,0.6476,0.6527,0.6523,0.6522,0.6512,0.6542,0.6559,0.6565,0.6485,0.6485,0.6485,0.6485,0,0,0.6072,0.6133,0.6143,0.6166,0.6214,0.6247,0.6288,0.6333,0.6355,0.6392,0.6428,0.6486,0.6485,0.6513,0.6529,0.6555,0.6591,0.6551,0.6552,0.6557,0.6649,0.6649,0.6656,0.6596,0.6597,0.6598,0.6645,0,0.6117,0.619,0.6211,0.6273,0.6311,0.6323,0.6359,0.6393,0.6415,0.645,0.6474,0.6515,0.6511,0.6528,0.6554,0.6581,0.661,0.6578,0.6629,0.6631,0.6618,0.6665,0.6666,0.6709,0.6652,0.6653,0.6654,0,0.618,0.6217,0.6282,0.6325,0.6341,0.6373,0.6416,0.6449,0.6488,0.6502,0.6532,0.6545,0.6588,0.6575,0.6635,0.6613,0.6635,0.6651,0.6654,0.666,0.6644,0.6672,0.6723,0.6729,0.6664,0.6663,0.6662,0,0.6202,0.6268,0.6315,0.6335,0.6386,0.6407,0.643,0.6467,0.6492,0.653,0.6547,0.6589,0.6612,0.6645,0.6669,0.6657,0.6727,0.6716,0.674,0.6739,0.6755,0.6753,0.6809,0.6768,0.6768,0.6768,0.6768,0,0.6251,0.629,0.6326,0.6355,0.64,0.6423,0.6466,0.6489,0.6522,0.6556,0.657,0.6601,0.6631,0.6667,0.6686,0.6732,0.6743,0.6755,0.676,0.6754,0.6753,0.677,0.6767,0.677,0.6769,0.6769,0.6769,0,0.6283,0.6308,0.6361,0.6404,0.6416,0.6446,0.6484,0.6513,0.6534,0.6577,0.6588,0.6622,0.6665,0.6692,0.6746,0.6759,0.681,0.6814,0.6797,0.6799,0.6822,0.6819,0.6891,0.6901,0.6853,0.6853,0.6854,0,0.6313,0.6343,0.6389,0.6412,0.6434,0.6472,0.6497,0.6521,0.6548,0.6592,0.6616,0.6659,0.6695,0.6762,0.6792,0.6834,0.6839,0.6861,0.6845,0.6838,0.6839,0.6837,0.684,0.6864,0.6864,0.6864,0.6865,0,0.6362,0.6373,0.6409,0.6449,0.6479,0.6512,0.6546,0.6564,0.6593,0.6622,0.6665,0.6693,0.6748,0.679,0.6834,0.6858,0.6866,0.6869,0.6877,0.6872,0.686,0.6867,0.6804,0.6868,0.6867,0.6867,0.6867,0.6867,0.6394,0.6422,0.6458,0.6497,0.6524,0.6554,0.6583,0.6608,0.6644,0.669,0.6702,0.6747,0.6783,0.6843,0.6867,0.6903,0.69,0.6911,0.6914,0.6916,0.6916,0.6854,0.6911,0.6911,0.6911,0.6911,0.6911,0,0.6444,0.6468,0.6504,0.6549,0.658,0.6584,0.662,0.6646,0.6685,0.6718,0.6753,0.6802,0.6843,0.6876,0.6918,0.694,0.6945,0.6951,0.6949,0.6954,0.6917,0.6906,0.6946,0.6946,0.6946,0.6946,0.6946,0.6946,0.6474,0.652,0.6535,0.6595,0.6618,0.6661,0.6682,0.671,0.6736,0.679,0.6824,0.6844,0.6877,0.6921,0.6959,0.6968,0.6983,0.6987,0.6997,0.6961,0.6957,0.6954,0.6943,0.699,0.699,0.7031,0.7032,0.7032]}]]